[[{"header":{"parameterUnit":"m.s-1","parameterCategory":1,"la1":30.2992,"la2":30.254,"lo1":-89.0895,"lo2":-89.0443,"dy":0.0025,"dx":0.0025,"nx":19,"ny":19,"refTime":"2026-04-19T03:00:00:Z","depth":0,"parameterNumber":2,"parameterNumberName":"U-component_of_WINDS"},"data":[0,0,0,-6.0803,-6.0805,-6.0851,-6.0851,-6.0955,-6.0956,0,0,0,0,0,0,0,0,0,0,0,-6.0816,-6.0817,-6.0803,-6.0805,-6.0851,-6.0851,-6.0955,-6.0956,0,0,0,0,0,0,0,0,0,0,0,-6.0815,-6.0817,-6.0819,-6.0805,-6.0851,-6.0851,-6.0955,-6.0904,0,0,0,0,0,0,0,0,0,0,-6.0852,-6.0888,-6.0816,-6.0819,-6.0806,-6.0851,-6.0851,-6.0901,-6.0907,-6.0953,0,-6.1,0,-6.098,-6.0966,-6.0967,0,0,0,-6.0786,-6.0883,-6.0872,-6.0819,-6.0807,-6.0851,-6.0825,-6.0904,-6.0911,-6.0962,-6.1001,-6.1004,-6.0982,-6.0967,-6.0968,-6.1297,-6.1299,0,0,-6.0783,-6.0838,-6.0867,-6.0878,-6.0872,-6.0824,-6.0827,-6.0908,-6.0954,-6.1001,-6.1005,-6.0984,-6.0968,-6.0969,-6.1295,-6.1298,0,0,0,-6.0789,-6.0837,-6.0823,-6.0875,-6.088,-6.0825,-6.0829,-6.095,-6.0941,-6.1006,-6.0985,-6.0969,-6.0971,-6.1292,-6.1296,-6.1471,0,0,0,-6.0787,-6.084,-6.0823,-6.0857,-6.0879,-6.0915,-6.0871,-6.0936,-6.0943,-6.0984,-6.0969,-6.0972,-6.1289,-6.1294,-6.146,-6.1545,0,0,0,-6.0804,-6.0842,-6.0858,-6.086,-6.0882,-6.0913,-6.0908,-6.0936,-6.0931,-6.0967,-6.0973,-6.1287,-6.1293,-6.145,-6.1529,-6.1649,0,0,0,-6.0838,-6.1012,-6.0861,-6.1047,-6.0882,-6.102,-6.0906,-6.1007,-6.1058,-6.097,-6.1289,-6.1295,-6.1447,-6.1519,-6.1639,-6.1761,-6.1817,0,0,-6.1088,-6.1044,-6.1148,-6.1015,-6.1195,-6.1009,-6.1214,-6.1209,-6.1162,-6.1255,-6.1262,-6.1463,-6.1528,-6.1647,-6.2106,-6.2151,0,0,0,-6.1246,-6.1322,-6.1358,-6.1409,-6.141,-6.1418,-6.1375,-6.1374,-6.145,-6.1221,-6.1537,-6.1573,-6.1641,-6.1697,-6.1735,-6.1791,-6.1323,-6.1322,-6.1322,-6.1678,-6.1609,-6.1779,-6.1717,-6.1769,-6.1724,-6.176,-6.1751,-6.1665,-6.1742,-6.1769,-6.2056,-6.2124,-6.2152,-6.2211,-6.1827,-6.1827,-6.1828,-6.1828,-6.2038,-6.2137,-6.202,-6.2144,-6.2071,-6.2174,-6.2139,-6.2076,-6.2162,-6.2029,-6.2085,-6.1947,-6.2203,-6.2251,-6.1841,-6.1839,-6.1837,-6.1836,-6.1835,-6.2315,-6.235,-6.2345,-6.2415,-6.2476,-6.2407,-6.2496,-6.2426,-6.236,-6.2416,-6.2439,-6.2436,-6.2426,-6.2432,-6.2433,-6.2434,-6.2435,-6.2435,-6.2436,-6.2604,-6.2593,-6.2677,-6.2694,-6.2719,-6.2743,-6.2702,-6.2726,-6.2734,-6.2676,-6.2675,-6.2585,-6.224,-6.2156,-6.2451,-6.2448,-6.2446,-6.2445,-6.2444,-6.2998,-6.2898,-6.3027,-6.3053,-6.3068,-6.3136,-6.3045,-6.3099,-6.3108,-6.3156,-6.3053,-6.2808,-6.2758,-6.2728,-6.2658,-6.3065,-6.3065,-6.3065,-6.3065,-6.3233,-6.3201,-6.3318,-6.3364,-6.3401,-6.3333,-6.3484,-6.3455,-6.3409,-6.3411,-6.3342,-6.3242,-6.3214,-6.3181,-6.3141,-6.3074,-6.3579,-6.3579,-6.358,-6.3472,-6.3441,-6.3582,-6.3535,-6.3543,-6.3552,-6.3692,-6.3751,-6.3678,-6.3599,-6.3412,-6.339,-6.3229,-6.318,-6.3097,-6.3036,-6.2913,0,0]},{"header":{"parameterUnit":"m.s-1","parameterCategory":1,"la1":30.2992,"la2":30.254,"lo1":-89.0895,"lo2":-89.0443,"dy":0.0025,"dx":0.0025,"nx":19,"ny":19,"refTime":"2026-04-19T03:00:00:Z","depth":0,"parameterNumber":3,"parameterNumberName":"V-component_of_WINDS"},"data":[0,0,0,0.0413,0.0412,0.0369,0.0369,0.031,0.031,0,0,0,0,0,0,0,0,0,0,0,0.0424,0.0424,0.0413,0.0412,0.0369,0.0369,0.031,0.031,0,0,0,0,0,0,0,0,0,0,0,0.0424,0.0424,0.0423,0.0412,0.0369,0.0369,0.031,0.0344,0,0,0,0,0,0,0,0,0,0,0.0387,0.0395,0.0424,0.0423,0.0412,0.0369,0.0369,0.0346,0.0342,0.0329,0,0.0317,0,0.0312,0.0305,0.0305,0,0,0,0.0413,0.0398,0.0388,0.0423,0.0411,0.0369,0.0389,0.0344,0.0339,0.0324,0.0316,0.0314,0.0311,0.0305,0.0305,0.0227,0.0226,0,0,0.0415,0.0415,0.0391,0.0386,0.0393,0.039,0.0387,0.0341,0.0332,0.0316,0.0312,0.031,0.0305,0.0304,0.0227,0.0226,0,0,0,0.0422,0.0417,0.0408,0.0388,0.038,0.0389,0.0385,0.0334,0.0332,0.0312,0.031,0.0304,0.0304,0.0227,0.0227,0.0206,0,0,0,0.0423,0.0421,0.0409,0.0409,0.0381,0.0357,0.038,0.0335,0.033,0.031,0.0304,0.0303,0.0228,0.0227,0.0208,0.0196,0,0,0,0.0428,0.0421,0.0414,0.0409,0.039,0.0358,0.0352,0.0334,0.0328,0.0305,0.0303,0.0228,0.0227,0.0209,0.0198,0.0175,0,0,0,0.0432,0.0396,0.0414,0.0373,0.0391,0.0346,0.0352,0.0319,0.0297,0.0304,0.0228,0.0227,0.0209,0.0199,0.0176,0.0154,0.0145,0,0,0.0386,0.039,0.0366,0.0381,0.0334,0.0353,0.0302,0.0281,0.0279,0.0244,0.0242,0.0207,0.0198,0.0175,0.0099,0.0092,0,0,0,0.0352,0.0334,0.0322,0.0301,0.0286,0.0272,0.0259,0.0252,0.0223,0.0261,0.0193,0.0188,0.0174,0.0164,0.0158,0.0146,0.0222,0.0222,0.0223,0.0284,0.0285,0.0246,0.0241,0.0222,0.0211,0.0195,0.0183,0.0188,0.0172,0.0161,0.0115,0.0103,0.0098,0.0086,0.0151,0.0151,0.0151,0.0151,0.0216,0.0191,0.0202,0.0167,0.0168,0.0138,0.0127,0.0132,0.0105,0.0123,0.0111,0.013,0.0091,0.008,0.0149,0.015,0.015,0.015,0.015,0.0171,0.0159,0.0152,0.0124,0.0103,0.0101,0.0074,0.0076,0.0078,0.0066,0.0055,0.0055,0.0055,0.0061,0.0061,0.0061,0.0061,0.0061,0.006,0.0125,0.0119,0.0097,0.0079,0.0068,0.0052,0.0043,0.0031,0.0019,0.0022,0.0022,0.0028,0.0088,0.0102,0.0058,0.0058,0.0059,0.0059,0.0059,0.0053,0.007,0.0036,0.0024,0.0005,-0.0016,-0.0012,-0.0035,-0.0044,-0.0057,-0.0047,-0.0003,0.0001,0.0005,0.0017,-0.0047,-0.0046,-0.0047,-0.0047,0.0013,0.0017,-0.0017,-0.0036,-0.0054,-0.0052,-0.0091,-0.0097,-0.0102,-0.0107,-0.0097,-0.0081,-0.0076,-0.0076,-0.0069,-0.0059,-0.0139,-0.014,-0.014,-0.0032,-0.003,-0.0064,-0.0066,-0.008,-0.0093,-0.0129,-0.015,-0.0151,-0.0143,-0.0112,-0.0108,-0.0082,-0.0073,-0.0067,-0.0057,-0.0038,0,0]}]]